DW7281 Weather Reports


Display with metric or nautical units.
time (UTC)temp
F
wind
direction
speed
MPH
gust
MPH
rain 1hr
in
rain 24hr
in
rain mn
in
humidity
%
barometer
mb
20260902030055 73 173 7.0 13.0 0.00 0.00 0.00 45 1024.9
20260902024558 74 196 5.0 14.0 0.00 0.00 0.00 45 1025.1
20260902023108 73 211 0.0 10.0 0.00 0.00 0.00 46 1025.5
20260902021554 73 198 4.0 12.0 0.00 0.00 0.00 47 1026.0
20260902020046 72 0 2.0 12.0 0.00 0.00 0.00 48 1026.2
20260902014555 72 207 5.0 14.0 0.00 0.00 0.00 49 1026.5
20260902013056 71 218 5.0 11.0 0.00 0.00 0.00 50 1026.8
20260902011554 70 267 3.0 14.0 0.00 0.00 0.00 51 1027.2
20260902010049 70 246 4.0 14.0 0.00 0.00 0.00 52 1027.3
20260902004556 69 248 4.0 12.0 0.00 0.00 0.00 52 1027.7
20260902003055 68 260 4.0 11.0 0.00 0.00 0.00 57 1027.8
20260902001602 68 224 3.0 12.0 0.00 0.00 0.00 57 1027.9
20260901234555 65 233 5.0 12.0 0.00 0.00 0.00 62 1028.2
20260901233058 65 265 7.0 13.0 0.00 0.00 0.00 63 1028.3
20260901231602 64 236 4.0 14.0 0.00 0.00 0.00 63 1028.2
20260901230056 63 212 5.0 12.0 0.00 0.00 0.00 66 1028.3
20260901224600 62 203 3.0 9.0 0.00 0.00 0.00 70 1028.3
20260901223056 60 360 5.0 11.0 0.00 0.00 0.00 74 1028.3
20260901221601 60 224 4.0 11.0 0.00 0.00 0.00 74 1028.1
20260901220054 59 219 6.0 10.0 0.00 0.00 0.00 74 1028.1
20260901214548 58 201 3.0 9.0 0.00 0.00 0.00 76 1027.9
20260901213056 57 0 2.0 8.0 0.00 0.00 0.00 78 1027.8
20260901211553 55 211 2.0 8.0 0.00 0.00 0.00 79 1027.8
20260901210057 52 230 1.0 6.0 0.00 0.00 0.00 84 1027.4
20260901204553 50 0 0.0 4.0 0.00 0.00 0.00 85 1027.2
20260901203056 49 0 0.0 0.0 0.00 0.00 0.00 85 1026.9
20260901201549 50 0 0.0 0.0 0.00 0.00 0.00 85 1026.8
20260901200053 50 0 0.0 0.0 0.00 0.00 0.00 85 1026.9
20260901194555 50 0 0.0 0.0 0.00 0.00 0.00 86 1026.6
20260901193056 50 0 0.0 0.0 0.00 0.00 0.00 86 1026.4
20260901191601 50 0 0.0 0.0 0.00 0.00 0.00 86 1026.4
20260901190050 50 0 0.0 0.0 0.00 0.00 0.00 85 1026.3
20260901184548 50 0 0.0 0.0 0.00 0.00 0.00 85 1026.2
20260901183056 51 0 0.0 0.0 0.00 0.00 0.00 85 1026.3
20260901181600 51 0 0.0 0.0 0.00 0.00 0.00 85 1026.3
20260901180053 51 0 0.0 0.0 0.00 0.00 0.00 85 1026.2
20260901174549 51 0 0.0 0.0 0.00 0.00 0.00 85 1026.3
20260901173101 52 0 0.0 0.0 0.00 0.00 0.00 85 1026.3
20260901171602 52 0 0.0 0.0 0.00 0.00 0.00 85 1026.4
20260901170058 53 0 0.0 0.0 0.00 0.00 0.00 85 1026.6
20260901164557 53 0 0.0 0.0 0.00 0.00 0.00 85 1026.8
20260901163053 53 0 0.0 3.0 0.00 0.00 0.00 85 1027.1
20260901161610 53 0 0.0 3.0 0.00 0.00 0.00 85 1027.3
20260901160107 53 0 0.0 3.0 0.00 0.00 0.00 86 1027.3
20260901154556 53 0 0.0 0.0 0.00 0.00 0.00 86 1027.6
20260901153056 53 0 0.0 0.0 0.00 0.00 0.00 86 1027.8
20260901151556 52 0 0.0 0.0 0.00 0.00 0.00 86 1027.9
20260901150054 52 0 0.0 0.0 0.00 0.00 0.00 86 1028.0
20260901144559 52 0 0.0 0.0 0.00 0.00 0.00 86 1028.1
20260901143059 52 0 0.0 0.0 0.00 0.00 0.00 86 1028.2
20260901141554 52 0 0.0 0.0 0.00 0.00 0.00 86 1028.3
20260901140049 52 0 0.0 0.0 0.00 0.00 0.00 85 1028.1
20260901134557 53 0 0.0 0.0 0.00 0.00 0.00 85 1028.3
20260901133054 53 0 0.0 0.0 0.00 0.00 0.00 84 1028.5
20260901131549 53 0 0.0 0.0 0.00 0.00 0.00 84 1028.6
20260901130059 54 0 0.0 3.0 0.00 0.00 0.00 84 1028.9
20260901124556 54 0 0.0 5.0 0.00 0.00 0.00 84 1028.8
20260901123055 54 0 0.0 4.0 0.00 0.00 0.00 84 1028.9
20260901121551 54 0 1.0 5.0 0.00 0.00 0.00 83 1028.9
20260901120057 55 41 0.0 4.0 0.00 0.00 0.00 83 1028.9
20260901114632 55 0 0.0 3.0 0.00 0.00 0.00 83 1028.9
20260901113101 55 0 0.0 4.0 0.00 0.00 0.00 83 1028.9
20260901111557 55 344 0.0 4.0 0.00 0.00 0.00 82 1028.9
20260901110056 55 0 0.0 0.0 0.00 0.00 0.00 81 1029.0
20260901104555 56 0 0.0 4.0 0.00 0.00 0.00 80 1028.9
20260901103058 56 0 0.0 5.0 0.00 0.00 0.00 80 1028.9
20260901101557 57 0 0.0 4.0 0.00 0.00 0.00 79 1028.9
20260901100101 57 0 0.0 3.0 0.00 0.00 0.00 78 1028.8
20260901094552 58 37 0.0 4.0 0.00 0.00 0.00 76 1028.8
20260901093102 58 0 0.0 4.0 0.00 0.00 0.00 75 1028.7
20260901091555 59 31 0.0 1.0 0.00 0.00 0.00 74 1028.7
20260901090056 59 5 0.0 4.0 0.00 0.00 0.00 73 1028.5
20260901084558 60 0 0.0 5.0 0.00 0.00 0.00 73 1028.3
20260901083058 60 5 0.0 3.0 0.00 0.00 0.00 72 1028.4
20260901081555 61 0 1.0 5.0 0.00 0.00 0.00 71 1028.3
20260901074549 61 0 0.0 8.0 0.00 0.00 0.00 69 1028.2
20260901073059 62 0 0.0 5.0 0.00 0.00 0.00 69 1028.2
20260901071558 62 17 0.0 8.0 0.00 0.00 0.00 68 1028.0
20260901070104 62 19 1.0 8.0 0.00 0.00 0.00 67 1027.9
20260901064551 63 312 1.0 8.0 0.00 0.00 0.00 67 1028.0
20260901063049 63 0 1.0 4.0 0.00 0.00 0.00 66 1028.0
20260901061558 64 0 0.0 5.0 0.00 0.00 0.00 65 1027.9
20260901060051 64 0 0.0 6.0 0.00 0.00 0.00 64 1028.1
20260901054559 64 23 1.0 8.0 0.00 0.00 0.00 65 1028.1
20260901053129 64 0 0.0 11.0 0.00 0.00 0.00 64 1028.1
20260901051549 64 56 2.0 10.0 0.00 0.00 0.00 64 1028.2
20260901050057 65 30 3.0 12.0 0.00 0.00 0.00 62 1028.2
20260901044600 66 0 0.0 8.0 0.00 0.00 0.00 61 1028.4
20260901043054 66 0 3.0 11.0 0.00 0.00 0.00 60 1028.5
20260901041603 67 38 2.0 10.0 0.00 0.00 0.00 60 1028.5
20260901040103 66 0 0.0 13.0 0.00 0.00 0.00 62 1028.9
20260901034550 67 9 2.0 11.0 0.00 0.00 0.00 61 1029.2
20260901033116 67 16 4.0 12.0 0.00 0.00 0.00 59 1029.4
20260901031553 67 350 0.0 11.0 0.00 0.00 0.00 55 1029.5